TimeAKST,TemperatureF,Dew PointF,Humidity,Sea Level PressureIn,VisibilityMPH,Wind Direction,Wind SpeedMPH,Gust SpeedMPH,PrecipitationIn,Events,Conditions,WindDirDegrees,DateUTC
12:53 AM,-42.0,-9999,N/A,30.68,10.0,SSW,8.1,-,N/A,,Unknown,200,2013-02-18 09:53:00
1:53 AM,-42.0,-9999,N/A,30.69,10.0,South,11.5,-,N/A,,Clear,190,2013-02-18 10:53:00
3:53 AM,-42.0,-9999,N/A,30.71,10.0,SSW,10.4,-,N/A,,Clear,200,2013-02-18 12:53:00
4:53 AM,-43.1,-9999,N/A,30.71,10.0,SSW,10.4,-,N/A,,Clear,200,2013-02-18 13:53:00
5:53 AM,-43.1,-9999,N/A,30.71,10.0,SSW,10.4,148.5,N/A,,Clear,200,2013-02-18 14:53:00
6:53 AM,-44.0,-9999,N/A,30.71,10.0,SSW,9.2,-,N/A,,Clear,200,2013-02-18 15:53:00
7:53 AM,-44.0,-9999,N/A,30.72,-9999.0,North,-9999.0,-,N/A,,Unknown,0,2013-02-18 16:53:00
8:53 AM,-44.0,-9999,N/A,30.73,8.0,SSW,8.1,-,N/A,,Clear,210,2013-02-18 17:53:00
9:53 AM,-44.0,-9999,N/A,30.73,10.0,SSW,6.9,-,N/A,,Unknown,210,2013-02-18 18:53:00
10:53 AM,-44.0,-9999,N/A,30.73,10.0,SSW,8.1,-,N/A,,Clear,200,2013-02-18 19:53:00
11:53 AM,-43.1,-9999,N/A,30.74,10.0,South,5.8,-,N/A,,Clear,190,2013-02-18 20:53:00
12:53 PM,-42.0,-9999,N/A,30.73,10.0,South,6.9,-,N/A,,Clear,190,2013-02-18 21:53:00
1:53 PM,-42.0,-9999,N/A,30.74,7.0,SW,8.1,-,N/A,,Unknown,220,2013-02-18 22:53:00
2:53 PM,-42.0,-9999,N/A,30.73,10.0,SSW,8.1,-,N/A,,Clear,210,2013-02-18 23:53:00
3:32 PM,-41.8,-9999,N/A,30.72,1.8,SSW,6.9,-,N/A,,Clear,200,2013-02-19 00:32:00
3:47 PM,-41.8,-9999,N/A,30.72,3.0,SSW,8.1,-,N/A,,Clear,200,2013-02-19 00:47:00
3:53 PM,-42.0,-9999,N/A,30.73,10.0,SSW,9.2,-,N/A,,Clear,210,2013-02-19 00:53:00
4:53 PM,-43.1,-9999,N/A,30.71,10.0,South,9.2,-,N/A,,Clear,190,2013-02-19 01:53:00
5:20 PM,-43.6,-9999,N/A,30.70,1.8,South,8.1,-,N/A,,Clear,180,2013-02-19 02:20:00
5:30 PM,-43.6,-9999,N/A,30.70,5.0,South,8.1,-,N/A,,Haze,180,2013-02-19 02:30:00
5:53 PM,-44.0,-9999,N/A,30.71,10.0,South,6.9,-,N/A,,Clear,190,2013-02-19 02:53:00
6:53 PM,-45.0,-9999,N/A,30.70,10.0,SSW,5.8,-,N/A,,Clear,210,2013-02-19 03:53:00
7:38 PM,-43.6,-9999,N/A,30.69,2.5,SW,5.8,-,N/A,,Clear,220,2013-02-19 04:38:00
7:45 PM,-43.6,-9999,N/A,30.68,10.0,SW,4.6,-,N/A,,Clear,220,2013-02-19 04:45:00
7:53 PM,-45.0,-9999,N/A,30.69,3.0,SW,4.6,-,N/A,,Clear,220,2013-02-19 04:53:00
8:05 PM,-45.4,-9999,N/A,30.68,3.0,SW,3.5,-,N/A,,Clear,220,2013-02-19 05:05:00
8:53 PM,-44.0,-9999,N/A,30.69,10.0,SSW,4.6,-,N/A,,Clear,200,2013-02-19 05:53:00
9:53 PM,-45.9,-9999,N/A,30.68,10.0,SW,5.8,-,N/A,,Clear,220,2013-02-19 06:53:00
10:53 PM,-45.0,-9999,N/A,30.66,10.0,SSE,3.5,-,N/A,,Clear,160,2013-02-19 07:53:00
11:53 PM,-44.0,-9999,N/A,30.65,10.0,Calm,Calm,-,N/A,,Clear,0,2013-02-19 08:53:00